Flag for Germany Weather past 2 weeks in Neubrandenburg, Mecklenburg-Western Pomerania, Germany

Now
58 °F

Light rain. Low clouds.


Feels Like: 58 °F
Forecast: 50 / 69 °F
Wind: 2 mph from Southeast

Location: Greifswald

Current Time: Oct 1, 2014 at 2:50:06 AM

Latest Report: Oct 1, 2014 at 2:00 AM


Visibility: 0 mi

Pressure: 30.28 "Hg

Humidity: 98%

Dew point: 57 °F

Location of NeubrandenburgLocation

Historic Weather in Neubrandenburg — Graph

°F

Neubrandenburg temperature yesterday

Maximum temperature yesterday: 59 °F (at 1:00 PM)
Minimum temperature yesterday: 55 °F (at 1:00 AM)
Average temperature yesterday: 57 °F

Past Weeks' High & Low Weather Summary

 TemperatureHumidityPressure
High71 °F (Sep 16, 3:00 PM)100% (Sep 20, 8:00 AM)30.33 "Hg (Sep 20, 8:00 AM)
Low46 °F (Sep 23, 9:00 PM)50% (Sep 27, 2:00 PM)29.72 "Hg (Sep 22, 7:00 AM)
Average57 °F83%30.05 "Hg
* Reported Sep 16 1:00 AM — Oct 1 1:00 AM, Neubrandenburg, Weather by CustomWeather, © 2014

Note: Actual official high and low records may vary slightly from our data, if they occured in-between our weather recording intervals... More about our weather records

Advertising

Neubrandenburg weather history for previous 24 hours

 ConditionsComfort  
Time TempWeatherWind HumidityBarometerVisibility
1:00 AM
Oct 1
58 °FLight rain. Low clouds.2 mph98%30.28 "Hg1 mi
12:00 AM58 °FLow clouds.2 mph98%30.28 "Hg1 mi
11:00 PM
Sep 30
58 °FOvercast.2 mph98%30.28 "Hg1 mi
10:00 PM58 °FDrizzle. Overcast.2 mph97%30.27 "Hg1 mi
9:00 PM58 °FDrizzle. Overcast.1 mph97%30.28 "Hg17 mi
8:00 PM58 °FFog.1 mph96%30.27 "Hg1 mi
7:00 PM58 °FLow clouds.1 mph94%30.27 "Hg2 mi
6:00 PM58 °FFog.1 mph93%30.25 "Hg4 mi
5:00 PM58 °FOvercast.2 mph88%30.25 "Hg5 mi
4:00 PM58 °FOvercast.5 mph91%30.25 "Hg4 mi
3:00 PM58 °FLight rain. Low clouds.5 mph94%30.25 "Hg2 mi
2:00 PM58 °FLight rain. Low clouds.5 mph93%30.25 "Hg2 mi
1:00 PM59 °FLight rain. Low clouds.3 mph92%30.24 "Hg2 mi
12:00 PM58 °FLight rain. Overcast.2 mph94%30.24 "Hg2 mi
10:00 AM58 °FLight rain. Overcast.1 mph96%30.23 "Hg1 mi
9:00 AM56 °FLight rain. Low clouds.1 mph98%30.22 "Hg1 mi
8:00 AM56 °FFog.1 mph98%30.21 "Hg1 mi
7:00 AM56 °FLight rain. Low clouds.1 mph98%30.20 "Hg1 mi
6:00 AM56 °FLight rain. Overcast.2 mph98%30.20 "Hg1 mi
4:00 AM56 °FLight rain. Overcast.1 mph97%30.21 "Hg2 mi
3:00 AM56 °FFog.1 mph98%30.21 "Hg2 mi
2:00 AM56 °FOvercast.1 mph99%30.21 "Hg1 mi
Weather by CustomWeather, © 2014

See weather overviewHow to use our weather pages